Other Public Products
Issued by NWS Grand Forks, ND

Home | Current Version | Previous Version | Text Only | Print | Product List | Glossary Off
Versions: 1 2 3 4 5 6 7 8 9 10 11 12 13 14 15 16 17 18 19 20 21 22 23 24 25 26 27 28 29 30 31 32 33 34 35 36 37 38 39 40 41 42 43 44 45 46 47 48 49 50

000
FPUS83 KFGF 242210
OPUFGF
PRAIRIE TO PINES WEATHER ROUNDUP
NATIONAL WEATHER SERVICE EASTERN NORTH DAKOTA/GRAND FORKS ND
500 PM CDT SAT JUN 24 2017

 **SATELLITE DATA USED TO AUGMENT SKY COVER AT AUTOMATED STATIONS**
 *****  WEATHER ACROSS EASTERN NORTH DAKOTA  *****

CITY           SKY/WX    TMP DP  RH WIND       PRES   REMARKS
GRAND FORKS    CLOUDY    54  49  83 NW18G30   30.09R
GRAND FORKS AF LGT RAIN  53  50  92 N18G25    30.11R
GRAND CITY NWS NOT AVBL
BUXTON         NOT AVBL
DEVILS LAKE    LGT RAIN  54  43  66 N18G26    30.17R
FARGO          CLOUDY    59  48  67 NW21G29   30.08S
WAHPETON ARPT  CLOUDY    61  41  48 NW21      30.09S
$$

 *****  WEATHER ACROSS CENTRAL AND WESTERN NORTH DAKOTA  *****

CITY           SKY/WX    TMP DP  RH WIND       PRES   REMARKS
JAMESTOWN      CLOUDY    57  45  64 NW24      30.16R
BISMARCK       CLOUDY    65  40  39 NW18G26   30.23S
MINOT          CLOUDY    58  41  53 NW17      30.24R
MINOT AFB      CLOUDY    57  40  51 NW16      30.23R
GARRISON         N/A     61  38  42 NW22G30   30.23S
WILLISTON      FAIR      69  35  28 N15G29    30.28S
DICKINSON      FAIR      63  28  26 N17G31    30.26R
HETTINGER      FAIR      70  30  22 N21G28    30.27R
$$

 *****  OTHER OBSERVATIONS NORTHEAST NORTH DAKOTA  *****

CITY           SKY/WX    TMP DP  RH WIND       PRES   REMARKS
WALHALLA       NOT AVBL
LANGDON        MOCLDY    52  46  82 N21G29    30.15R
CAVALIER       NOT AVBL
GRAFTON        DRIZZLE   52  50  93 N21G30    30.12R
CANDO          NOT AVBL
FORT TOTTEN      N/A     54  45  71 N7        29.95S
ROLLA            N/A     54  45  71 NW15      30.18S
RUGBY          NOT AVBL
 ***** THE ABOVE OBSERVATIONS ARE NON NWS ARE NOT QUALITY
        CONTROLLED AND MAY MIS-REPORT RAIN FOR SNOW...
$$

 *****  OTHER OBSERVATIONS SOUTHEAST NORTH DAKOTA *****

CITY           SKY/WX    TMP DP  RH WIND       PRES   REMARKS
COOPERSTOWN    MOCLDY    59  45  58 NW22G31   30.13R
VALLEY CITY    CLOUDY    59  46  63 NW16G26   30.14R
OAKES          NOT AVBL
GWINNER        CLOUDY    59  45  58 NW18      30.13S
SHEYENNE NWR     N/A     61  46  57 NW13      29.95S
BUFFALO        NOT AVBL
WYNDMERE       NOT AVBL
 ***** THE ABOVE OBSERVATIONS ARE NON NWS ARE NOT QUALITY
       CONTROLLED AND MAY MIS-REPORT RAIN FOR SNOW...
$$

  *****  WEATHER ACROSS NORTHERN MINNESOTA  *****

CITY           SKY/WX    TMP DP  RH WIND       PRES   REMARKS
FLAG ISLAND    CLOUDY    61  48  63 CALM      29.98S
WARROAD        FAIR      59  54  82 W6        30.00S
ROSEAU         FAIR      57  54  88 CALM      30.01R
HALLOCK        RAIN      52  50  93 N18G25    30.07R
THF RVR FALLS  CLOUDY    53  51  93 NW18G25   30.04S
HALSTAD        NOT AVBL
FOSSTON        LGT RAIN  54  52  94 NW16G23   30.04R
BAUDETTE       CLOUDY    61  50  67 NW12      29.98S
WASKISH        CLOUDY    63  48  59 NW7       29.98F
CROOKSTON      CLOUDY    54  48  82 N23G31    30.07R
$$
  *****  WEATHER ACROSS CENTRAL AND WEST MINNESOTA  *****

CITY           SKY/WX    TMP DP  RH WIND       PRES   REMARKS
BEMIDJI        PTSUNNY   61  46  58 W15       30.00F
PARK RAPIDS    CLOUDY    62  44  51 NW14      30.02R
WADENA         FAIR      59  46  63 NW13G23   30.04S
DETROIT LAKES  LGT RAIN  55  52  88 NW16      30.06F
MOORHEAD       PTSUNNY   57  52  82 NW17G29   30.09R
FERGUS FALLS   CLOUDY    59  46  63 N15G22    30.06S
ELBOW LAKE     CLOUDY    60  46  61 NW15G23   30.08S
MORRIS MN      FAIR      63  43  48 NW18      30.07S
STAPLES        PTSUNNY   63  46  55 W16       30.03S
WHEATON        PTSUNNY   63  39  42 W20G26    30.10S
$$
  *****  WEATHER ELSEWHERE ACROSS MINNESOTA  *****

CITY           SKY/WX    TMP DP  RH WIND       PRES   REMARKS
DULUTH         PTSUNNY   61  45  55 NW12G22   29.95S
INTRNTL FALLS  CLOUDY    62  48  60 NW14      29.95R
ELY            CLOUDY    61  43  51 NW14G21   29.93R
CLOQUET        FAIR      61  46  59 W7        29.97S
BRAINERD       PTSUNNY   61  44  53 NW18G26   30.02R
HIBBING        LGT RAIN  55  50  83 NW7       29.97R
ALEXANDRIA     CLOUDY    61  45  55 NW20      30.08R
SAINT CLOUD    CLOUDY    60  53  77 NW12      30.03R
MINNEAPOLIS    PTSUNNY   65  45  48 W17G26    30.02S
$$

  *****  WEATHER ACROSS SOUTH DAKOTA  *****

CITY           SKY/WX    TMP DP  RH WIND       PRES   REMARKS
SIOUX FALLS    FAIR      70  44  39 NW21G29   30.12S
BROOKINGS      FAIR      65  41  41 NW20      30.13S
WATERTOWN      FAIR      62  40  44 NW18G29   30.13S
HURON          FAIR      70  41  34 NW23G29   30.15R
SISSETON         N/A     64  41  42 NW22G30   30.10S
ABERDEEN       FAIR      67  43  41 N22G29    30.16R
MITCHELL       FAIR      74  32  21 NW26G35   30.14S
PIERRE         FAIR      73  32  22 NW23G33   30.17F
MOBRIDGE       FAIR      69  37  30 N21G26    30.18S
RAPID CITY     FAIR      75  29  18 N17G31    30.25F
$$

  *****  SOME WEATHER IN NEARBY STATES *****

CITY           SKY/WX    TMP DP  RH WIND       PRES   REMARKS
GLASGOW MT     FAIR      72  31  22 NW6G18    30.27F
GREAT FALLS MT PTSUNNY   72  36  26 E9        30.29F
CHEYENNE WY    FAIR      70  38  31 SE9       30.34S
SCOTTSBLUFF NE PTSUNNY   76  35  22 CALM      30.26F
OMAHA NE       FAIR      80  37  21 NW17      30.12F
DES MOINES IA  FAIR      77  41  27 W23G30    30.07F
DAVENPORT IA   FAIR      73  42  32 W20G26    30.07F
CHICAGO IL     FAIR      73  44  35 W13G28    29.99S
EAU CLAIRE WI  CLOUDY    56  49  77 W13G18    30.00R
LA CROSSE WI   PTSUNNY   64  53  67 S10       30.00F
$$

  *****  SOME NATIONAL WEATHER *****

CITY           SKY/WX    TMP DP  RH WIND       PRES   REMARKS
LA GUARDIA NY  PTSUNNY   85  54  34 W13G26    29.78R
RALEIGH NC     TSTM      77  69  76 N9        29.92R
ATLANTA GA     LGT RAIN  79  75  87 SW6       30.00F
NEW ORLEANS LA LGT RAIN  78  76  93 W10       30.06R
OKLAHOMA CITY  FAIR      84  48  28 E9        30.15F
ALBUQUERQUE NM PTSUNNY   89  51  27 SW9       30.14F
SALT LAKE CITY FAIR      87  37  17 NW9       30.16F
LOS ANGELES CA FAIR      70  60  70 SW10      29.89F
BOISE ID       FAIR      86  32  14 N12       30.13F
SEATTLE WA     FAIR      87  54  32 N10       30.07F
$$

*** WEATHER ACROSS MANITOBA...SASKATCHEWAN AND ONTARIO ***
                ***ONTARIO***

CITY           SKY/WX    TMP DP  RH WIND       PRES   REMARKS
GERALDTON      PTSUNNY   66  41  39 N6        29.88S
THUNDER BAY    PTSUNNY   63  54  72 W7        29.88S
SIOUX LOOKOUT  CLOUDY    55  50  82 N6        29.94R
TORONTO        PTSUNNY   73  52  46 NW18G25   29.83R
BIG TROUT LK   CLOUDY    57  36  44 N10       30.02F
PICKLE LAKE    PTSUNNY   61  43  51 N12       29.96R
DRYDEN         TSTM      54  52  94 S12       29.95R
KENORA         LGT RAIN  57  54  88 N8        29.99S
$$
                *** MANITOBA***

CITY           SKY/WX    TMP DP  RH WIND       PRES   REMARKS
BRANDON        CLOUDY    57  43  58 N20       30.19R
DAUPHIN        MOSUNNY   59  46  63 N12G17    30.20S
ISLAND LAKE    PTSUNNY   59  39  47 N7        30.09S
PILOT MOUND      N/A     52  46  82 NW15        N/A
THE PAS        MOSUNNY   55  43  62 W5        30.20F
THOMPSON       PTSUNNY   61  36  39 NW12G18   30.11S
WINNIPEG       LGT RAIN  54  48  82 NW14      30.11R
LYNN LAKE      CLOUDY    63  32  31 NW8G18    30.16S
CHURCHILL      MOSUNNY   59  30  33 N6        30.07F
GILLAM         MOSUNNY   64  43  45 NW7       30.05F
$$
                ***SASKATCHEWAN***

CITY           SKY/WX    TMP DP  RH WIND       PRES   REMARKS
ESTEVAN        PTSUNNY   63  37  39 N15G21    30.26S
KINDERSLEY     MOSUNNY   70  45  40 W9G18     30.25S
LLOYDMINSTER   PTSUNNY   70  45  40 NW9       30.23S
PRINCE ALBERT  MOSUNNY   68  39  34 NW9       30.22F
REGINA         PTSUNNY   68  37  32 W13G24    30.24F
YORKTON        LGT RAIN  55  45  67 N15       30.23S



USA.gov is the U.S. government's official web portal to all federal, state and local government web resources and services.